{"data":{"norad_id":63121,"intl_designator":"2025-039T","name":"STARLINK-32947","alt_names":[],"object_type":"PAYLOAD","status":"ACTIVE","operator":null,"country":"US","launch_date":"2025-02-27","launch_site_code":"AFETR","launch_vehicle":null,"mission":null,"orbit_class":"UNKNOWN","rcs_meters":null,"size_class":null,"mass_kg":null,"dimensions":null,"purposes":["comms"],"wikipedia_slug":null,"has_3d_model":false,"image_url":null,"decayed_at":null,"tle_current":{"epoch":"2026-09-21T12:41:31.521984Z","epoch_age_seconds":73351,"freshness":"FRESH","line1":"1 63121U 25039T   26264.52883706  .00012251  00000+0  45380-3 0  9994","line2":"2 63121  43.0046 346.2858 0000577 277.1873  82.8913 15.27593790 88029","mean_motion":15.2759379,"eccentricity":5.77e-5,"inclination_deg":43.0046,"raan_deg":346.2858,"arg_perigee_deg":277.1873,"mean_anomaly_deg":82.8913,"bstar":0.0004538,"rev_number":8802,"period_min":94.265897742357,"perigee_km":482.61191607416,"apogee_km":483.40369218455,"semimajor_km":6861.1448041294,"source":"CELESTRAK","updated_at":"2026-09-22T09:00:49.765923Z"}}}